Location: Il Ritiro
(43.4167°N, 13.1333°E)
Time: 17:11:26
(UTC+00:00)

Cosmos 2151 - Pass Details

Date: 05 July 2020
Orbit: 580 x 602 km, 82.5° (Epoch: 10 August)

Event Time Altitude Azimuth Distance (km) Brightness Sun altitude
Exits shadow 21:47:18 38° 96° (E) 916 3.7 -21.1°
Maximum altitude 21:47:25 38° 92° (E) 914 3.7 -21.1°
Drops below altitude 10° 21:51:24 10° 24° (NNE) 1,942 6.2 -21.4°
Sets 21:53:42 0° 17° (NNE) 2,845 7.3 -21.5°
